Wind_Speed
20 20 20 20 21 21 21 20 20 20 20 20 20 21 21 21 20 20 20 20 21 20 21 21 22 22 22 22 23 23 23 24 24 24 24 24 24 24 24 23 23 23 22 22 22 21 21 21 21
21 21 22 22 22 22 21 20 20 21 21 21 21 22 22 22 22 21 21 22 22 22 22 23 23 23 23 23 24 24 24 24 25 25 25 25 26 26 25 25 25 25 24 24 24 24 23 23 22
21 21 22 23 23 23 22 20 21 22 22 22 22 23 23 23 23 23 23 24 24 24 24 24 24 25 25 25 25 26 26 26 26 26 26 27 27 27 27 27 27 27 26 26 26 26 25 25 25
20 21 21 22 23 23 23 22 22 22 23 23 23 23 24 24 25 24 25 25 25 26 26 26 26 27 27 28 28 28 28 28 28 28 28 28 28 29 29 29 29 29 28 27 27 28 28 27 27
19 20 21 22 23 23 23 23 23 23 23 24 24 24 24 25 25 26 26 27 27 27 27 28 28 29 29 29 30 30 30 30 30 30 30 30 30 31 31 31 31 31 31 30 30 29 30 30 29
18 19 20 21 22 22 23 23 24 24 24 25 25 25 25 26 26 27 28 28 29 29 29 29 30 30 30 31 31 32 32 32 32 33 33 33 33 33 33 33 34 33 33 33 33 33 32 31 31
18 18 19 21 21 21 22 24 24 24 24 25 25 26 26 27 28 28 29 29 30 30 30 31 32 32 33 33 33 34 34 35 35 35 36 36 36 36 36 36 36 36 36 35 35 35 35 34 33
18 19 19 20 20 20 22 23 24 24 25 25 25 25 26 27 28 28 29 30 30 31 31 32 33 34 35 36 36 36 36 37 38 38 38 38 38 39 39 39 39 39 38 38 38 37 37 37 36
17 18 18 19 19 20 21 22 23 24 24 25 25 25 25 26 27 28 29 30 31 32 33 34 35 36 36 37 38 38 38 39 39 40 40 40 40 41 41 41 41 41 41 40 40 40 39 39 39
16 17 17 18 18 19 20 21 22 23 24 25 25 25 25 26 27 28 29 30 31 32 33 34 35 36 36 37 38 39 40 40 40 41 42 42 42 43 43 43 43 43 42 42 42 42 41 41 40
17 17 17 17 17 18 19 20 21 22 23 24 25 26 26 27 28 29 30 31 32 33 34 35 35 36 37 38 39 40 41 42 42 43 44 44 44 44 45 45 45 45 45 44 44 44 44 44 43
17 17 17 17 18 18 19 19 20 21 23 24 25 26 27 28 29 30 31 32 33 34 35 36 36 37 38 39 40 41 43 44 44 45 45 46 46 46 47 47 47 47 47 47 47 47 47 47 46
17 17 18 18 19 19 20 20 20 21 23 24 25 26 27 28 29 30 31 32 34 35 35 36 37 39 40 41 42 42 44 45 46 46 47 47 48 48 48 48 48 49 49 49 49 49 49 49 49
18 18 19 19 19 20 21 21 21 22 24 24 25 26 28 28 29 31 32 33 34 35 36 38 38 39 41 42 43 44 45 46 47 48 49 49 50 50 50 50 50 51 52 52 52 51 51 51 51
19 19 20 20 21 21 22 21 22 23 24 25 25 26 28 29 30 31 33 33 34 35 37 38 40 41 42 43 44 45 46 47 49 49 50 51 52 52 52 52 52 53 54 54 54 54 54 53 54
20 20 20 21 21 22 22 21 22 24 24 25 26 27 28 29 31 31 32 33 34 35 36 38 40 42 43 45 46 46 48 49 50 51 52 52 53 54 54 54 54 55 56 56 56 56 56 56 55
21 21 21 21 22 23 23 22 23 24 25 26 27 28 29 30 30 31 32 33 34 35 36 37 39 41 43 45 46 47 48 49 51 52 53 54 54 55 56 56 57 57 57 57 58 58 58 58 57
22 22 22 22 23 23 23 23 24 25 26 27 28 29 29 29 30 31 32 34 35 36 37 37 38 40 42 43 43 45 47 48 49 51 52 54 54 55 56 57 58 58 57 58 59 60 60 60 60
24 24 23 23 24 24 24 25 26 26 27 27 28 28 28 29 30 32 33 34 35 35 36 36 37 38 39 40 42 43 44 46 48 49 51 53 54 54 55 56 57 58 58 59 60 60 61 61 60
26 25 24 25 25 26 25 25 26 26 27 28 29 29 29 30 31 32 33 34 34 34 34 35 35 36 38 38 40 42 42 43 45 46 48 50 52 53 54 54 55 57 57 57 59 59 59 59 59
27 26 26 26 26 27 27 26 26 27 28 28 29 29 30 31 31 32 33 33 33 34 34 35 35 36 37 38 39 40 41 42 44 46 47 49 51 51 52 52 53 54 54 55 57 57 57 58 58
28 27 27 28 28 28 28 27 25 27 28 29 29 29 30 31 31 32 33 33 33 33 34 35 35 36 37 38 40 41 43 43 44 46 47 48 49 50 50 50 51 52 52 52 53 54 55 57 57
29 28 29 29 30 29 28 29 26 27 27 28 29 29 30 31 32 32 33 34 34 34 34 35 35 36 37 39 42 43 43 44 45 46 46 47 48 48 48 49 49 50 51 52 53 53 54 55 56
30 30 30 31 31 31 29 30 29 27 28 29 30 30 31 31 32 33 33 34 35 35 35 35 35 37 38 39 41 43 43 43 44 45 46 47 47 47 47 48 50 51 52 51 52 53 54 55 55
31 31 31 32 32 32 31 31 30 29 29 30 31 31 32 33 34 34 34 35 35 36 36 37 37 38 38 40 42 43 43 44 44 45 45 46 46 47 48 49 50 51 52 52 52 54 54 54 54
31 32 32 33 33 33 32 32 30 30 31 31 31 32 33 34 34 35 36 36 36 36 36 38 38 39 40 41 42 43 44 45 45 45 45 46 47 48 47 48 50 50 51 52 52 53 53 54 55
33 33 32 34 35 35 34 33 31 31 31 31 32 33 33 33 34 35 35 35 36 36 37 38 39 40 41 41 42 43 44 45 45 46 47 47 46 46 47 48 49 50 50 51 51 52 52 53 54
33 33 32 34 35 36 36 33 32 31 31 32 33 33 33 33 34 35 34 34 35 36 37 38 39 40 41 43 43 44 45 46 46 46 47 48 47 46 47 47 49 50 51 52 52 52 52 52 52
34 34 34 35 36 36 37 34 33 32 32 33 33 33 33 34 35 35 35 35 36 37 38 39 40 41 42 42 43 44 44 45 45 46 47 47 47 46 47 47 49 49 50 51 51 51 51 51 50
36 35 35 36 36 36 37 35 33 33 33 33 34 34 34 35 35 35 36 36 37 38 38 39 40 41 42 43 44 45 44 44 45 45 45 45 46 46 46 46 46 47 48 50 51 50 49 49 48
Wind_Direction
239 240 240 240 241 241 242 241 242 243 243 242 242 242 243 245 247 249 248 248 248 248 248 248 249 250 250 251 252 252 253 253 254 256 257 258 259 260 261 262 262 263 264 264 264 264 265 267 269
242 242 242 242 243 243 243 244 243 244 243 243 243 243 244 246 247 249 248 249 249 250 250 250 250 252 252 253 254 255 255 256 256 257 258 259 260 260 261 262 263 264 264 264 264 265 265 266 268
244 244 244 244 245 245 245 244 244 244 244 244 245 245 246 247 248 249 250 251 252 253 253 253 253 254 254 254 255 256 256 257 257 258 258 260 261 261 261 262 263 264 264 264 264 265 265 265 266
245 245 246 246 246 246 245 244 245 246 246 246 246 248 249 250 251 252 252 253 254 254 255 256 256 256 256 257 257 257 257 258 258 258 259 260 261 262 262 262 263 264 264 264 264 265 266 266 266
247 247 248 247 247 246 246 246 247 247 248 248 248 248 250 250 252 254 255 255 255 255 256 257 258 258 257 257 257 257 258 258 258 259 259 260 261 262 263 263 264 265 264 263 264 265 266 265 265
249 249 249 249 250 249 249 249 248 249 248 248 249 249 251 253 254 255 256 256 257 258 258 258 258 258 259 258 258 259 259 259 260 260 260 261 262 263 264 264 264 264 265 265 264 265 266 267 267
251 251 251 252 253 252 251 251 252 251 250 250 251 252 253 254 255 256 257 258 259 259 259 259 259 259 259 259 260 260 260 260 260 261 261 262 262 263 264 264 265 264 263 264 264 264 265 266 266
253 254 254 254 254 252 251 252 253 253 253 253 254 254 254 255 257 258 259 260 260 260 260 260 260 260 261 261 261 261 261 261 261 261 261 262 262 263 264 264 265 265 264 263 264 264 265 265 265
253 253 254 255 254 253 252 253 254 254 254 255 255 256 257 258 259 260 261 262 262 262 262 261 261 261 262 262 262 261 261 262 262 262 262 262 263 264 264 265 265 265 265 265 265 265 264 264 265
253 255 255 255 255 255 255 255 256 257 257 258 258 258 258 260 261 262 264 264 264 264 264 264 263 263 262 262 263 262 262 262 262 263 263 263 263 264 264 265 265 265 265 265 265 265 265 264 264
253 255 255 255 256 256 256 258 258 259 260 260 260 261 261 263 264 266 266 266 265 265 265 265 264 264 263 264 264 263 263 263 263 263 263 263 263 264 264 264 264 264 265 265 265 265 265 264 263
253 255 257 257 258 258 259 260 261 262 262 263 263 264 265 266 267 268 268 267 267 266 265 265 265 265 265 265 265 265 264 264 264 264 264 264 264 264 265 264 264 263 264 265 265 264 266 265 264
253 254 256 258 259 260 261 262 264 265 265 265 266 267 268 268 269 270 271 270 269 268 268 267 266 266 266 266 267 266 266 265 264 264 264 265 265 265 264 264 264 264 264 264 264 263 263 265 264
253 254 256 259 261 262 263 264 267 267 268 269 269 270 271 271 271 271 272 272 272 272 270 269 268 269 268 268 268 267 267 266 265 264 264 264 264 264 263 263 264 264 264 264 264 264 263 263 263
254 256 257 259 262 264 265 266 268 270 271 272 273 273 274 274 274 274 274 274 275 275 273 272 271 270 269 268 268 267 267 266 265 265 264 264 264 264 264 264 264 264 264 264 263 263 262 262 262
256 257 259 260 262 265 267 269 271 273 273 275 276 277 277 276 276 276 275 276 277 277 276 275 273 271 270 270 269 269 268 267 266 265 265 265 264 264 264 264 265 264 264 264 263 263 263 262 262
256 259 260 261 263 266 268 270 271 274 276 278 279 279 278 278 278 277 277 278 279 279 279 279 277 274 272 271 270 270 271 270 268 267 266 266 265 265 265 265 265 265 264 264 264 264 264 263 262
258 260 261 262 264 267 269 272 274 276 279 280 280 280 280 280 279 279 279 280 280 281 281 281 281 278 275 274 273 273 274 273 271 269 268 267 266 266 266 266 266 266 265 264 264 264 264 264 263
258 260 262 263 266 268 270 272 275 278 280 281 281 282 281 280 281 282 282 282 281 281 281 282 282 281 278 277 276 275 275 275 274 272 270 268 267 267 267 267 267 266 265 265 264 265 265 264 263
259 261 263 265 267 269 270 271 274 278 279 281 282 283 282 282 283 283 283 283 282 281 282 282 283 282 282 282 281 279 279 278 276 274 273 271 269 269 269 268 267 267 266 265 265 265 266 265 263
260 262 264 266 267 270 272 271 274 277 279 281 283 284 284 284 285 285 284 283 283 283 283 284 285 284 284 283 283 282 281 280 278 276 275 274 272 271 270 269 268 268 268 267 266 266 265 264 262
261 263 265 267 269 271 273 275 275 278 280 282 283 284 285 285 286 286 284 283 284 284 285 286 286 285 285 283 283 285 284 282 281 279 278 277 274 272 271 270 269 269 269 268 268 267 266 264 263
261 263 265 267 269 271 274 277 278 280 282 282 284 285 286 287 287 286 285 285 285 286 287 287 287 287 287 286 286 286 286 285 284 283 280 279 276 273 272 272 272 272 270 269 269 268 267 266 265
260 262 264 267 269 271 274 277 280 283 284 284 285 286 287 288 288 286 286 285 286 287 287 286 287 288 290 290 289 288 288 288 287 285 283 281 279 275 275 275 274 275 273 271 269 268 267 266 265
259 262 265 268 269 272 275 278 282 284 286 287 287 287 288 288 288 287 286 286 286 286 286 287 288 290 292 292 291 290 290 289 289 288 286 284 281 277 277 276 275 277 276 274 272 269 267 266 265
259 262 266 270 272 274 275 278 282 285 287 289 289 289 289 289 289 288 287 287 287 287 287 288 289 290 292 293 293 292 291 291 291 290 289 287 284 280 278 278 276 276 276 275 274 272 269 267 266
258 261 265 269 271 273 275 279 282 286 288 290 290 290 291 291 290 289 288 287 288 289 290 290 290 291 293 293 293 292 292 291 291 292 291 290 287 283 282 281 278 278 276 275 274 272 271 269 267
259 261 265 268 270 273 276 280 285 287 288 290 291 291 292 292 291 290 289 288 289 291 291 292 292 293 293 294 294 293 293 293 293 293 293 293 289 286 286 283 280 279 277 275 274 274 272 270 267
259 261 265 267 269 273 278 281 285 288 290 291 292 292 293 294 293 290 289 290 290 292 293 293 294 293 293 294 295 296 296 295 294 294 294 294 291 288 286 284 282 280 277 276 275 274 272 269 267
258 261 264 267 270 273 276 280 285 288 290 291 292 293 295 295 293 292 292 291 292 293 294 294 295 295 295 296 297 297 296 297 296 295 295 294 293 291 289 285 284 282 279 277 275 273 271 270 267
Height
5819 5820 5822 5823 5825 5826 5826 5828 5829 5830 5830 5831 5833 5834 5834 5836 5837 5840 5840 5839 5840 5841 5842 5843 5844 5845 5846 5846 5847 5848 5849 5850 5851 5851 5852 5853 5853 5854 5854 5855 5855 5856 5856 5856 5857 5857 5857 5857 5857
5815 5817 5819 5820 5820 5821 5823 5824 5825 5825 5826 5827 5828 5829 5830 5831 5833 5834 5835 5835 5836 5838 5838 5839 5840 5841 5842 5843 5844 5845 5845 5846 5847 5848 5848 5849 5849 5850 5850 5851 5851 5852 5852 5853 5853 5853 5853 5853 5854
5811 5813 5815 5815 5816 5817 5819 5820 5821 5821 5822 5823 5824 5825 5826 5827 5828 5829 5830 5831 5832 5833 5834 5835 5836 5837 5838 5839 5839 5840 5841 5842 5843 5843 5844 5845 5845 5846 5846 5847 5847 5848 5848 5849 5849 5849 5850 5850 5850
5807 5809 5810 5811 5811 5813 5814 5816 5816 5817 5818 5819 5820 5821 5822 5823 5824 5825 5826 5827 5828 5829 5830 5831 5832 5832 5833 5834 5835 5836 5836 5837 5838 5839 5839 5840 5841 5841 5842 5842 5842 5843 5844 5844 5845 5845 5845 5845 5846
5803 5804 5805 5806 5806 5808 5809 5811 5812 5813 5814 5815 5816 5816 5817 5818 5819 5820 5820 5821 5823 5824 5825 5825 5826 5827 5828 5829 5829 5830 5831 5832 5833 5833 5834 5835 5835 5836 5836 5837 5837 5838 5838 5839 5840 5840 5840 5840 5841
5800 5800 5801 5801 5802 5803 5805 5806 5807 5808 5809 5810 5811 5812 5812 5813 5814 5815 5815 5816 5817 5818 5819 5820 5820 5821 5822 5823 5823 5824 5825 5826 5827 5828 5828 5829 5830 5830 5831 5831 5832 5832 5833 5833 5834 5834 5835 5835 5835
5796 5796 5796 5797 5797 5799 5800 5800 5802 5803 5804 5805 5806 5806 5807 5808 5808 5809 5810 5811 5812 5812 5813 5814 5814 5815 5816 5816 5817 5818 5819 5819 5820 5821 5822 5822 5823 5824 5824 5824 5825 5826 5826 5827 5827 5828 5828 5829 5829
5791 5792 5792 5792 5793 5794 5795 5795 5796 5797 5799 5800 5801 5801 5802 5802 5802 5803 5804 5805 5805 5806 5807 5807 5808 5808 5809 5810 5810 5811 5811 5812 5813 5814 5814 5815 5816 5816 5817 5817 5817 5818 5819 5820 5820 5821 5822 5822 5823
5786 5788 5788 5788 5789 5789 5790 5790 5791 5792 5793 5794 5795 5796 5796 5796 5796 5797 5798 5798 5799 5799 5800 5800 5801 5801 5802 5802 5803 5803 5804 5804 5805 5806 5806 5807 5808 5808 5809 5809 5810 5810 5811 5812 5812 5813 5814 5815 5815
5782 5783 5784 5784 5784 5784 5785 5785 5786 5786 5787 5788 5788 5789 5790 5790 5790 5791 5791 5792 5792 5792 5792 5792 5793 5793 5793 5794 5794 5795 5795 5796 5796 5797 5798 5798 5799 5800 5800 5801 5801 5802 5802 5803 5804 5805 5805 5806 5807
5778 5779 5779 5779 5779 5779 5780 5780 5780 5781 5781 5782 5782 5783 5783 5783 5784 5784 5784 5784 5784 5784 5784 5784 5784 5785 5785 5785 5785 5786 5786 5787 5787 5788 5788 5789 5790 5790 5791 5791 5792 5792 5793 5794 5795 5796 5796 5797 5798
5774 5774 5774 5774 5774 5775 5775 5775 5775 5776 5776 5776 5776 5776 5777 5777 5776 5776 5776 5776 5776 5776 5776 5776 5775 5776 5776 5776 5776 5776 5776 5777 5777 5778 5778 5779 5780 5780 5780 5781 5782 5782 5783 5784 5785 5786 5787 5787 5789
5769 5769 5769 5770 5770 5770 5770 5770 5770 5770 5770 5770 5770 5770 5770 5770 5769 5768 5768 5768 5767 5767 5767 5766 5766 5766 5766 5766 5766 5766 5766 5766 5766 5767 5767 5768 5769 5769 5770 5770 5771 5771 5772 5773 5774 5775 5776 5777 5778
5764 5764 5764 5765 5765 5764 5765 5765 5765 5765 5764 5763 5763 5763 5762 5762 5761 5760 5760 5759 5758 5757 5757 5756 5755 5755 5754 5754 5754 5754 5754 5754 5754 5755 5755 5756 5757 5758 5758 5759 5760 5760 5761 5762 5763 5763 5765 5766 5767
5759 5759 5760 5760 5759 5759 5759 5760 5759 5758 5757 5757 5756 5756 5755 5754 5753 5752 5750 5749 5748 5747 5746 5745 5744 5743 5743 5742 5742 5742 5741 5741 5741 5742 5743 5743 5744 5745 5746 5747 5748 5748 5748 5749 5750 5751 5752 5754 5755
5753 5754 5754 5755 5754 5753 5755 5754 5753 5751 5751 5750 5749 5748 5747 5745 5744 5743 5741 5740 5738 5737 5735 5734 5732 5731 5730 5730 5729 5729 5728 5728 5728 5728 5729 5729 5730 5731 5732 5733 5734 5734 5734 5735 5736 5737 5738 5739 5741
5748 5748 5748 5749 5748 5747 5747 5747 5747 5745 5744 5743 5741 5740 5738 5736 5735 5733 5732 5730 5729 5727 5725 5723 5721 5719 5718 5717 5716 5715 5714 5714 5713 5713 5714 5714 5715 5716 5717 5718 5719 5719 5719 5720 5721 5722 5723 5725 5726
5742 5742 5742 5742 5742 5741 5741 5740 5739 5738 5736 5735 5733 5731 5729 5727 5726 5724 5722 5721 5719 5717 5715 5713 5710 5708 5706 5704 5703 5702 5701 5700 5699 5698 5698 5699 5700 5701 5702 5703 5703 5703 5704 5704 5705 5706 5707 5709 5711
5735 5735 5735 5735 5735 5734 5734 5733 5732 5730 5729 5727 5725 5723 5721 5719 5717 5715 5713 5711 5709 5707 5705 5703 5700 5697 5695 5693 5692 5690 5689 5687 5686 5685 5684 5684 5685 5685 5686 5686 5687 5687 5687 5688 5689 5690 5691 5693 5694
5727 5728 5728 5728 5727 5727 5727 5726 5725 5723 5721 5719 5717 5715 5713 5711 5709 5707 5705 5702 5700 5698 5695 5693 5690 5687 5685 5682 5681 5679 5677 5676 5674 5672 5671 5670 5670 5670 5670 5670 5670 5671 5671 5671 5672 5673 5674 5676 5677
5720 5721 5721 5721 5720 5719 5719 5719 5718 5716 5713 5712 5710 5707 5705 5703 5700 5698 5696 5694 5691 5689 5686 5683 5680 5677 5675 5673 5671 5668 5666 5664 5663 5661 5659 5658 5656 5656 5655 5655 5654 5654 5655 5655 5656 5656 5657 5659 5661
5713 5714 5713 5713 5712 5712 5711 5710 5711 5708 5706 5704 5702 5700 5697 5695 5693 5690 5687 5685 5682 5680 5677 5674 5671 5668 5665 5663 5661 5658 5655 5653 5651 5649 5647 5645 5643 5642 5641 5641 5640 5640 5640 5640 5640 5640 5641 5642 5644
5705 5705 5705 5705 5704 5703 5703 5701 5703 5701 5699 5697 5695 5692 5689 5687 5684 5681 5679 5676 5673 5671 5668 5665 5662 5659 5656 5653 5650 5647 5644 5642 5639 5637 5635 5633 5630 5629 5628 5627 5626 5626 5625 5625 5625 5625 5626 5627 5628
5696 5697 5697 5696 5695 5696 5696 5694 5694 5693 5691 5689 5686 5684 5681 5679 5676 5673 5670 5667 5665 5662 5659 5656 5653 5650 5646 5643 5639 5636 5633 5630 5628 5625 5623 5620 5618 5616 5615 5614 5613 5612 5611 5610 5610 5610 5610 5611 5613
5688 5689 5689 5687 5687 5687 5687 5685 5686 5685 5683 5680 5678 5675 5673 5670 5667 5664 5661 5658 5655 5653 5650 5647 5643 5640 5636 5633 5629 5626 5622 5619 5616 5613 5611 5608 5606 5604 5602 5600 5599 5598 5597 5596 5595 5595 5596 5596 5597
5680 5680 5681 5680 5679 5679 5678 5677 5679 5677 5674 5671 5669 5666 5663 5661 5657 5654 5651 5649 5646 5643 5640 5637 5634 5630 5627 5623 5619 5615 5612 5608 5605 5601 5598 5595 5593 5591 5588 5586 5584 5583 5582 5581 5580 5579 5580 5580 5581
5670 5671 5672 5671 5669 5669 5669 5669 5670 5668 5666 5663 5660 5658 5654 5651 5648 5645 5642 5639 5636 5633 5631 5627 5624 5620 5616 5612 5609 5605 5601 5597 5593 5590 5586 5582 5578 5576 5573 5571 5570 5568 5567 5566 5565 5564 5564 5564 5565
5662 5662 5662 5661 5660 5659 5660 5661 5661 5659 5657 5655 5652 5649 5646 5642 5639 5635 5632 5629 5627 5624 5621 5617 5613 5610 5606 5602 5597 5593 5589 5584 5580 5577 5572 5568 5564 5561 5558 5556 5555 5553 5552 5550 5549 5549 5548 5548 5549
5653 5654 5653 5652 5652 5652 5650 5655 5652 5650 5648 5645 5642 5639 5636 5633 5630 5626 5623 5620 5617 5614 5610 5607 5603 5599 5595 5590 5585 5581 5576 5571 5567 5563 5558 5554 5551 5547 5544 5542 5539 5538 5536 5534 5533 5533 5532 5532 5533
5642 5644 5644 5644 5644 5643 5642 5646 5643 5641 5638 5635 5633 5630 5627 5624 5620 5616 5613 5610 5607 5604 5600 5596 5592 5587 5583 5578 5574 5569 5564 5559 5555 5550 5546 5541 5537 5534 5530 5527 5524 5522 5520 5518 5517 5516 5516 5516 5517